Flag for Austria Weather past 2 weeks in Mattersburg, Burgenland, Austria

Now
66 °F

Mild.


Feels Like: 66 °F
Forecast: 49 / 59 °F
Wind: 5 mph from Northwest

Location: Eisenstadt

Current Time: Sep 21, 2014 at 10:15:15 PM

Latest Report: Sep 21, 2014 at 9:00 PM


Visibility: N/A

Pressure: 29.83 "Hg

Humidity: 74%

Dew point: 57 °F

Location of MattersburgLocation

Historic Weather in Mattersburg — Graph

°F

Mattersburg temperature yesterday

Maximum temperature yesterday: 76 °F (at 3:00 PM)
Minimum temperature yesterday: 60 °F (at 3:00 AM)
Average temperature yesterday: 65 °F

Past Weeks' High & Low Weather Summary

 TemperatureHumidityPressure
High78 °F (Sep 9, 2:00 PM)99% (Sep 9, 9:00 AM)30.09 "Hg (Sep 9, 9:00 AM)
Low51 °F (Sep 18, 7:00 AM)49% (Sep 21, 2:00 PM)29.77 "Hg (Sep 12, 5:00 AM)
Average62 °F84%29.97 "Hg
* Reported Sep 6 9:00 PM — Sep 21 9:00 PM, Mattersburg, Weather by CustomWeather, © 2014

Note: Actual official high and low records may vary slightly from our data, if they occured in-between our weather recording intervals... More about our weather records

Advertising

Mattersburg weather history for previous 24 hours

 ConditionsComfort  
Time TempWeatherWind HumidityBarometerVisibility
9:00 PM
Sep 21
66 °FMild.5 mph74%29.83 "HgN/A
8:00 PM67 °FOvercast.6 mph71%29.83 "Hg11 mi
7:00 PM67 °FPassing clouds.3 mph74%29.83 "Hg12 mi
6:00 PM68 °FMild.3 mph70%29.82 "HgN/A
5:00 PM69 °FOvercast.6 mph69%29.83 "Hg12 mi
4:00 PM71 °FMild.3 mph67%29.85 "HgN/A
3:00 PM70 °FMild.8 mph69%29.85 "HgN/A
2:00 PM77 °FPassing clouds.3 mph49%29.85 "Hg12 mi
1:00 PM76 °FMild.3 mph55%29.87 "HgN/A
12:00 PM75 °FMild.3 mph58%29.88 "HgN/A
11:00 AM74 °FPassing clouds.5 mph60%29.89 "Hg12 mi
10:00 AM71 °FMild.5 mph66%29.90 "HgN/A
9:00 AM69 °FMild.6 mph69%29.90 "HgN/A
8:00 AM67 °FScattered clouds.3 mph75%29.90 "Hg12 mi
7:00 AM64 °FPartly sunny.5 mph82%29.91 "Hg12 mi
6:00 AM65 °FPassing clouds.5 mph79%29.90 "Hg6 mi
5:00 AM65 °FPassing clouds.6 mph82%29.90 "Hg6 mi
4:00 AM64 °FPassing clouds.3 mph84%29.91 "Hg6 mi
3:00 AM64 °FMild.3 mph86%29.92 "HgN/A
2:00 AM63 °FMild.2 mph89%29.92 "HgN/A
1:00 AM65 °FMild.3 mph83%29.91 "HgN/A
12:00 AM66 °FMild.No wind81%29.92 "HgN/A
11:00 PM
Sep 20
68 °FPassing clouds.3 mph78%29.92 "Hg6 mi
10:00 PM68 °FMild.2 mph77%29.92 "HgN/A
Weather by CustomWeather, © 2014

See weather overviewHow to use our weather pages